This is the latest recevied weather packets stored in our database for station/object IU1OPQ-3. If no packets are shown the sender has not sent any weather packets the latest 10 day(s).
| Time | Temp. | Humidity | Pressure | Rain* | Wind** | Luminosity | Snow |
|---|---|---|---|---|---|---|---|
| 1777840200 | 13.33° C | 47% | 1017.2 hPa | 0 mm | - | - | - |
| 1777839301 | 13.33° C | 47% | 1017.1 hPa | 0 mm | - | - | - |
| 1777838401 | 13.89° C | 47% | 1017.1 hPa | 0 mm | - | - | - |
| 1777837501 | 13.89° C | 48% | 1017.1 hPa | 0 mm | - | - | - |
| 1777836600 | 13.89° C | 50% | 1017.1 hPa | 0 mm | - | - | - |
| 1777835701 | 13.89° C | 53% | 1016.8 hPa | 0 mm | - | - | - |
| 1777834800 | 13.89° C | 55% | 1016.9 hPa | 0 mm | - | - | - |
| 1777833901 | 13.89° C | 56% | 1016.7 hPa | 0 mm | - | - | - |
| 1777833002 | 14.44° C | 55% | 1016.7 hPa | 0 mm | - | - | - |
| 1777832100 | 15° C | 51% | 1016.6 hPa | 0 mm | - | - | - |
| 1777831201 | 15° C | 49% | 1016.7 hPa | 0 mm | - | - | - |
| 1777830301 | 15.56° C | 50% | 1016.6 hPa | 0 mm | - | - | - |
| 1777829401 | 15.56° C | 49% | 1016.7 hPa | 0 mm | - | - | - |
| 1777828501 | 15.56° C | 48% | 1016.9 hPa | 0 mm | - | - | - |
| 1777827601 | 15.56° C | 47% | 1016.8 hPa | 0 mm | - | - | - |
| 1777826700 | 16.11° C | 48% | 1016.9 hPa | 0 mm | - | - | - |
| 1777825801 | 16.11° C | 47% | 1016.8 hPa | 0 mm | - | - | - |
| 1777824901 | 16.11° C | 47% | 1017 hPa | 0 mm | - | - | - |
| 1777824001 | 16.11° C | 46% | 1016.9 hPa | 0 mm | - | - | - |
| 1777823101 | 16.67° C | 46% | 1016.9 hPa | 0 mm | - | - | - |
| 1777822201 | 16.67° C | 48% | 1017 hPa | 0 mm | - | - | - |
| 1777821301 | 16.67° C | 49% | 1017.3 hPa | 0 mm | - | - | - |
| 1777820400 | 16.67° C | 47% | 1017.2 hPa | 0 mm | - | - | - |
| 1777819501 | 17.22° C | 48% | 1017.4 hPa | 0 mm | - | - | - |
| 1777818601 | 16.67° C | 50% | 1017.5 hPa | 0 mm | - | - | - |
* Rain latest hour (hover to see other rain measurements)
** Current wind speed in m/s (hover to see current wind gust speed)